Simultaneous Nadir Overpasses (SNOs) Predictions

Prediction of SNOs between METOP-A and NOAA-19 Satellite Orbit:

Table of predicted SNOs for the next 14.0 days since TLE Epoch: 2/17/2012
Index Date (METOP-A) Time (METOP-A) METOP-A Lat,Lon Date (NOAA-19) Time (NOAA-19) NOAA-19 Lat,Lon Distance(km) Time Diff (sec)
1 02/18/2012 04:05:24 -73.12, -68.71 02/18/2012 04:04:09 -73.12, -68.77 1.96 75
2 02/18/2012 04:56:04 73.08, 98.55 02/18/2012 04:55:07 73.10, 98.54 1.85 57
3 02/18/2012 05:46:47 -73.05, -94.20 02/18/2012 05:46:13 -73.05, -94.13 2.29 34
4 02/18/2012 06:37:26 73.06, 73.17 02/18/2012 06:37:12 73.07, 73.07 3.54 14
5 02/18/2012 07:28:09 -73.03,-119.58 02/18/2012 07:28:18 -73.02,-119.60 0.96 9
6 02/18/2012 08:18:49 72.99, 47.68 02/18/2012 08:19:16 73.00, 47.71 0.99 27
7 02/18/2012 09:09:32 -72.96,-145.07 02/18/2012 09:10:22 -72.95,-144.96 3.71 50
8 02/18/2012 10:00:11 72.98, 22.30 02/18/2012 10:01:21 72.98, 22.24 2.15 70
9 02/18/2012 10:51:08 -72.23,-171.89 02/18/2012 10:52:14 -72.27,-169.08 95.41 66
10 02/27/2012 23:44:57 73.49, 177.21 02/27/2012 23:43:47 73.50, 175.50 54.13 70
11 02/28/2012 00:35:47 -73.11, -16.31 02/28/2012 00:34:46 -73.09, -16.35 2.48 61
12 02/28/2012 01:26:27 73.06, 150.93 02/28/2012 01:25:44 73.08, 150.93 1.49 43
13 02/28/2012 02:17:10 -73.04, -41.80 02/28/2012 02:16:51 -73.07, -41.82 3.14 19
14 02/28/2012 03:07:49 73.04, 125.55 02/28/2012 03:07:49 73.05, 125.46 3.13 0
15 02/28/2012 03:58:32 -73.02, -67.18 02/28/2012 03:58:55 -72.99, -67.19 3.00 23
16 02/28/2012 04:49:12 72.97, 100.06 02/28/2012 04:49:53 72.98, 100.10 1.32 41
17 02/28/2012 05:39:55 -72.95, -92.67 02/28/2012 05:41:00 -72.97, -92.66 2.14 65
18 02/28/2012 06:30:41 72.60, 73.94 02/28/2012 06:31:51 72.60, 75.37 47.68 70




NCC Satellite Simultaneous Nadir Overpasses (SNOs) Prediction Service
